Погода в Тамдыбулаке

Погода в Тамдыбулаке : погода сейчас, прогноз погоды и архив. Всё, что Вы хотите узнать о погоде в Тамдыбулаке!

Хотите узнать прогноз погоды в Тамдыбулаке? Тогда Вам сюда: Погода в Тамдыбулаке

Поиск расширенной информации на нашем сайте:

Другие новости

Новости СМИ2

Главная страница сайта

Новости сайта

03.07.2017

Напоминаем, что на нашем специализированном сайте Метеоцентр.Азия вы можете получить высокодетализированные автоматические прогнозы погоды по пунктам России, СНГ и мира в авиационном формате (включающие направление и скорость ветра, видимость, явления погоды, количество и форму облачности, нижнюю и верхнюю границу облачности).


Погода в Тамдыбулаке - сегодня

Время (UTC), дата Ветер
(°,м/с) 
Видим.   Явления Облачность Т
(°С)
Тd
(°С)
f(%) Тe
(°С)
Pmin
(гПа)
dP
(гПа)
Po
(мм)
O2
(г/м3)
Тmin Tmax R s Состояние
почвы
09 20.02.18 150 (ЮВ) 10 км  слаб. дождь  10/0 средняя 
[As op]
+3.2 +1.7 90 1015.2  -0.4  740  294           
12 20.02.18 270 (З) 1000 м  слаб. морось{дождь}  10/10 200 м 
[St]
+2.8 +2.5 98 +1  1018.2  2.7  742  295           
15 20.02.18 280 (З) н/о  {морось}  10/0 средняя 
[As op]
+0.2 -0.1 98 -3  1019.5  742  299    +4       
18 20.02.18 090 (В) н/о    ясно 
-3.6 -13.1 48 -5  1037.1  -1.4  755  309    +1.4       
21 20.02.18 230 (ЮЗ) н/о    10/0 средняя 
[As op]
+0.4 +0.4 100 -3  1021.4  0.6  744  299           
00 21.02.18 190 (Ю) н/о    10/0 средняя 
[Ac As]
-0.6 -0.6 100 -4  1024.6  746  301           
03 21.02.18 180 (Ю) 20000 м    10/0 средняя 
[As op]
+3.4 +3.2 99 +1  1024.7  0.4  746  297           
06 21.02.18 190 (Ю) 20000 м    10/0 средняя 
[As op]
+4.8 +4.1 95 +4  1024.6  0.2  746  295  -0.8         
09 21.02.18 190 (Ю) 20000 м    10/0 средняя 
[Ac As]
+6 +4.6 91 +5  1024.6  0.1  747  294           
12 21.02.18 260 (З) 20000 м    10/0 средняя 
[Ac As]
+5.1 +3.2 88 +4  1024.7  747  295           
15 21.02.18 250 (З) н/о    10/0 средняя 
[Ac As]
+2.5 +0.9 89 +2  1025.3  0.3  747  298    +6.9       
18 21.02.18 190 (Ю) н/о    10/0 средняя 
[Ac As]
+2.6 +1.3 91 +3  1026.7  1.3  748  298    +6.9       
21 21.02.18 тихо ()   н/о    10/0 средняя 
[Ac As]
+0.8 -0 94 +1  1027.6  0.8  748  301           
00 22.02.18 060 (СВ) н/о    10/0 средняя 
[As op]
+0.1 -0.8 94 -2  1027.2  -0.5  748  301           
03 22.02.18 070 (В) 20000 м    10/0 средняя 
[As op]
+1.6 -0 89 1027.2  0.1  748  300           
06 22.02.18 080 (В) 20000 м    10/0 средняя 
[Ac As]
+3.4 -1.1 72 +2  1026.3  -0.8  747  298  +0         
09 22.02.18 060 (СВ) 20000 м    10/0 средняя 
[Ac As]
+5.2 +1.7 78 +4  1024.3  -1.6  746  295           
12 22.02.18 030 (СВ) 20000 м    10/0 средняя 
[Ac As]
+6.3 +2.7 78 +5  1023  -1.2  745  293           
15 22.02.18 060 (СВ) н/о    8/0 средняя 
[Ac As]
+4.3 +1.2 80 +3  1022.7  -0.5  745  295    +7.1       
18 22.02.18 080 (В) н/о    10/0 средняя 
[Ac As]
+4.3 +1.5 82 +2  1021.3  -1.4  744  295    +7.1       
21 22.02.18 120 (ЮВ) н/о    10/0 средняя 
[Ac As]
+2.4 -0 84 +2  1021.3  -0.1  744  297           
00 23.02.18 110 (В) н/о    ясно 
+1.4 -0.5 87 -1  1020  -1.3  743  298           
06 23.02.18 090 (В) 20000 м    4/0 средняя, верхняя 
[As op|Ci fib]
+6 -2.9 53 +4  1019.6  1.7  743  293  +0.9         
09 23.02.18 080 (В) 20000 м    ясно 
+10.6 +6.4 75 +10  1017.5  -1.6  742  287           
12 23.02.18 040 (СВ) 20000 м    ясно 
+12 +7.4 73 +12  1018  0.6  742  285           
Время (UTC), дата Ветер
(°,м/с) 
Видим.   Явления Облачность Т
(°С)
Тd
(°С)
f(%) Тe
(°С)
Pmin
(гПа)
dP
(гПа)
Po
(мм)
O2
(г/м3)
Тmin Tmax R s Состояние
почвы

Для получения пояснительной информации подведите курсор к названию столбца.

ПОГОДА в Тамдыбулаке - архив

Всё, что Вы хотите узнать о погоде в Тамдыбулаке - удобно и подробно!

Выберите нужную дату (начиная с 1 января 2015* года) и нажмите кнопку "Найти".
Будут отображены архивные сводки погоды по пункту Тамдыбулак, начиная с указанной даты.


Отображать данные в формате CSV (для использования в таблицах Excel)


Внимание! Наш архив погоды предназначен исключительно для личного некоммерческого использования в познавательных целях. Если Вам необходимы официальные справки о состоянии погоды (для производственных, юридических, коммерческих и т.п. целей), обращайтесь в органы Росгидромета.

*Примечание: данная дата относится к архиву по метеостанциям СССР (Россия, СНГ, Балтия).
Архив по метеостанциям Зарубежной Европы и Азии (кроме Китая) хранится 10 дней, по другим регионам земного шара (Китай, Африка, Америка, Австралия, Океания) - 1 день.

Тамдыбулак - район местоположения метеостанции


Название, широта, долгота, высота метеостанции:
Тамдыбулак (Тамды) 41.7°ш. 64.6°д. 237 м над ур. моря [Узбекистан]

Дополнительная информация

В oтличие oт бoльшинства пoгoдных сайтoв мы публикуем пoдрoбную метеoинфoрмацию в детальнoм прoфессиoнальнoм фoрмате.

Характеристики температуры и влажнoсти вoздуха измеряются на высoте 2 м в тени вдали oт зданий и деревьев.
Скoрoсть ветра измеряется на высoте 10 м (на урoвне рoста челoвека скoрoсть ветра ниже в 1.5-2 раза). Если метеoстанция нахoдится в гoрoде или в лесу, тo скoрoсть ветра занижена на 2-4 м/с пo сравнению с oткрытым местoм. Скoрoсть ветра над акватoриями крупных рек и oзёр, а также на вершинах хoлмoв на 2-5 м/с выше, чем в oбычных услoвиях.
Атмoсфернoе давление в разных тoчках местнoсти мoжет значительнo oтличаться oт давления на метеoстанции, в зависимoсти oт услoвий рельефа (при пoдъёме на 10 м давление пoнижается примернo на 1 мм рт.ст.).